EDT,Max TemperatureF,Mean TemperatureF,Min TemperatureF,Max Dew PointF,MeanDew PointF,Min DewpointF,Max Humidity, Mean Humidity, Min Humidity, Max Sea Level PressureIn, Mean Sea Level PressureIn, Min Sea Level PressureIn, Max VisibilityMiles, Mean VisibilityMiles, Min VisibilityMiles, Max Wind SpeedMPH, Mean Wind SpeedMPH, Max Gust SpeedMPH,PrecipitationIn, CloudCover, Events, WindDirDegrees
2012-9-1,78,74,71,72,70,66,83,80,78,30.10,30.08,30.07,10,10,7,9,6,,0.00,4,,91
2012-9-2,82,74,68,70,68,66,94,77,62,29.97,29.95,29.91,10,9,5,15,12,22,0.00,7,,90
2012-9-3,87,78,68,70,67,64,88,65,52,29.95,29.91,29.87,10,10,10,9,6,,0.00,1,,86
2012-9-4,84,78,71,70,67,64,94,70,51,29.92,29.90,29.86,10,10,7,7,4,,0.00,3,Rain,320
2012-9-5,80,73,66,68,65,63,100,75,58,29.92,29.84,29.80,10,9,6,14,4,18,0.00,1,Rain,196
2012-9-6,82,74,66,68,59,48,94,58,32,29.94,29.92,29.89,10,9,6,12,3,17,0.00,2,,293
2012-9-7,80,70,59,64,60,57,94,72,45,29.93,29.83,29.74,10,10,6,14,4,17,0.00,3,Rain,179
2012-9-8,69,63,57,55,51,45,88,65,46,29.85,29.85,29.81,10,10,7,16,6,23,0.00,5,Rain,316
2012-9-9,71,61,51,59,52,48,100,71,43,30.05,30.00,29.94,10,8,0,14,3,,0.00,4,Fog,333
2012-9-10,73,60,46,50,43,41,100,50,31,30.35,30.21,30.14,10,10,10,6,2,,0.00,0,,145
2012-9-11,80,66,51,54,50,46,88,49,30,30.22,30.18,30.12,10,10,10,12,5,18,0.00,0,,203
2012-9-12,82,70,57,73,55,48,89,55,30,30.23,30.19,30.15,10,10,10,14,6,21,0.00,0,,203
2012-9-13,80,73,60,59,57,54,82,61,39,30.26,30.23,30.19,10,10,10,13,6,21,0.00,7,,250
2012-9-14,71,62,53,50,44,37,88,52,29,30.34,30.31,30.29,10,10,10,12,5,18,0.00,2,,348
2012-9-15,73,60,48,48,44,41,93,48,31,30.34,30.28,30.20,10,10,10,8,2,,0.00,0,,170
2012-9-16,77,65,53,50,45,37,88,46,25,30.15,30.11,30.03,10,10,10,12,3,16,0.00,0,,213
2012-9-17,75,63,51,57,53,48,88,61,47,29.97,29.88,29.74,10,10,10,10,3,,0.00,3,,200
2012-9-18,59,56,48,54,44,30,94,69,34,29.97,29.84,29.73,10,10,10,20,8,25,0.00,6,Rain,318
2012-9-19,68,54,39,43,34,32,93,41,26,30.12,30.03,29.94,10,10,10,15,7,22,0.00,1,,195
2012-9-20,69,63,57,46,42,36,67,47,30,29.94,29.90,29.88,10,10,10,18,8,23,0.00,2,,258
2012-9-21,68,56,44,52,42,32,88,65,26,29.95,29.90,29.83,10,10,10,12,4,16,0.00,4,Rain,216
2012-9-22,55,50,46,48,44,41,100,80,58,30.05,29.93,29.83,10,8,4,15,8,30,0.00,5,Rain-Thunderstorm,273
2012-9-23,55,47,39,39,35,32,87,55,41,30.23,30.21,30.18,10,10,10,17,9,21,0.00,5,,283
2012-9-24,66,52,37,36,31,27,87,45,23,30.22,30.12,29.96,10,10,10,15,8,23,0.00,0,,218
2012-9-25,71,60,48,57,48,39,82,62,49,29.94,29.91,29.87,10,10,10,21,5,17,0.00,6,,198
2012-9-26,71,66,57,63,57,48,100,78,46,30.11,29.99,29.92,10,6,0,8,5,,0.00,5,Fog,284
2012-9-27,68,58,48,54,49,45,87,68,56,30.20,30.16,30.12,10,10,10,10,4,,0.00,4,,91
2012-9-28,66,57,48,48,47,45,88,64,46,30.17,30.14,30.09,10,10,10,9,5,,0.00,5,,72
2012-9-29,71,56,41,50,43,37,100,53,29,30.11,30.05,29.98,10,10,10,12,5,17,0.00,1,,293
2012-9-30,66,58,50,48,41,36,87,50,32,29.98,29.96,29.93,10,10,10,12,6,,0.00,2,,62